TimeEDT,TemperatureF,Dew PointF,Humidity,Sea Level PressureIn,VisibilityMPH,Wind Direction,Wind SpeedMPH,Gust SpeedMPH,PrecipitationIn,Events,Conditions,WindDirDegrees,DateUTC
12:54 AM,39.9,34.0,79,30.14,10.0,West,8.1,-,N/A,,Clear,260,2013-05-14 04:54:00
1:54 AM,39.0,33.1,79,30.14,10.0,WSW,5.8,-,N/A,,Clear,250,2013-05-14 05:54:00
2:54 AM,36.0,32.0,86,30.14,10.0,South,5.8,-,N/A,,Partly Cloudy,180,2013-05-14 06:54:00
3:54 AM,36.0,32.0,86,30.15,10.0,SSW,6.9,-,N/A,,Scattered Clouds,200,2013-05-14 07:54:00
4:54 AM,36.0,32.0,86,30.14,10.0,South,5.8,-,N/A,,Mostly Cloudy,190,2013-05-14 08:54:00
5:54 AM,36.0,32.0,86,30.14,10.0,South,4.6,-,N/A,,Mostly Cloudy,180,2013-05-14 09:54:00
6:54 AM,37.9,32.0,79,30.16,10.0,South,5.8,-,N/A,,Mostly Cloudy,190,2013-05-14 10:54:00
7:54 AM,41.0,32.0,70,30.16,10.0,South,6.9,-,N/A,,Mostly Cloudy,190,2013-05-14 11:54:00
8:54 AM,46.0,30.0,54,30.16,10.0,SW,6.9,-,N/A,,Mostly Cloudy,230,2013-05-14 12:54:00
9:54 AM,46.9,30.0,52,30.14,10.0,WSW,10.4,-,N/A,,Mostly Cloudy,240,2013-05-14 13:54:00
10:54 AM,50.0,30.0,46,30.13,10.0,SSW,10.4,-,N/A,,Mostly Cloudy,210,2013-05-14 14:54:00
11:54 AM,52.0,27.0,38,30.13,10.0,SW,9.2,-,N/A,,Overcast,220,2013-05-14 15:54:00
12:54 PM,53.1,28.9,40,30.11,10.0,SSW,10.4,-,N/A,,Overcast,210,2013-05-14 16:54:00
1:54 PM,53.1,27.0,37,30.10,10.0,SW,9.2,-,N/A,,Overcast,230,2013-05-14 17:54:00
2:54 PM,55.0,28.9,37,30.07,10.0,West,10.4,18.4,N/A,,Mostly Cloudy,260,2013-05-14 18:54:00
3:54 PM,54.0,28.0,37,30.04,10.0,SW,8.1,-,N/A,,Mostly Cloudy,220,2013-05-14 19:54:00
4:54 PM,55.0,30.0,38,30.02,10.0,SSW,6.9,-,N/A,,Mostly Cloudy,210,2013-05-14 20:54:00
5:54 PM,55.0,32.0,42,30.00,10.0,SSW,8.1,-,N/A,,Mostly Cloudy,200,2013-05-14 21:54:00
6:54 PM,55.0,33.1,43,29.99,10.0,South,8.1,-,N/A,,Mostly Cloudy,190,2013-05-14 22:54:00
7:54 PM,54.0,35.1,49,30.00,10.0,SSW,6.9,-,N/A,,Overcast,200,2013-05-14 23:54:00
8:54 PM,53.1,36.0,52,29.99,10.0,South,5.8,-,N/A,,Overcast,190,2013-05-15 00:54:00
9:54 PM,53.1,37.0,55,29.99,10.0,South,11.5,-,N/A,,Overcast,180,2013-05-15 01:54:00
10:54 PM,53.1,37.0,55,29.95,10.0,SSE,11.5,-,N/A,,Overcast,150,2013-05-15 02:54:00
11:54 PM,52.0,37.9,59,29.91,10.0,SSE,9.2,-,N/A,,Overcast,150,2013-05-15 03:54:00